station,date_time,longitude_east,latitude_north,depth,sw_sal,sw_sal_result_value_qualifier,sea_water_temperature,sea_water_temperature_result_value_qualifier,sea_water_pressure,sea_water_pressure_result_value_qualifier,KD_PAR,KD_PAR_result_value_qualifier
CH1-1,2016-01-26T20:50:00Z,-79.18,53.85,20,24.99,,-1.08,,, NC,, NC
CH1-1,2016-01-26T21:00:00Z,-79.18,53.85,20,25.05,,-1.09,,, NC,, NC
CH1-1,2016-01-26T21:10:00Z,-79.18,53.85,20,25.03,,-1.09,,, NC,, NC
CH1-1,2016-01-26T21:20:00Z,-79.18,53.85,20,25.03,,-1.09,,, NC,, NC
CH1-1,2016-01-26T21:30:00Z,-79.18,53.85,20,24.98,,-1.09,,, NC,, NC
CH1-1,2016-01-26T21:40:00Z,-79.18,53.85,20,24.96,,-1.10,,, NC,, NC
CH1-1,2016-01-26T21:50:00Z,-79.18,53.85,20,24.95,,-1.10,,, NC,, NC
CH1-1,2016-01-26T22:00:00Z,-79.18,53.85,20,24.92,,-1.11,,, NC,, NC
CH1-1,2016-01-26T22:10:00Z,-79.18,53.85,20,24.91,,-1.11,,, NC,, NC
CH1-1,2016-01-26T22:20:00Z,-79.18,53.85,20,24.85,,-1.11,,, NC,, NC
CH1-1,2016-01-26T22:30:00Z,-79.18,53.85,20,24.87,,-1.11,,, NC,, NC
CH1-1,2016-01-26T22:40:00Z,-79.18,53.85,20,24.90,,-1.11,,, NC,, NC
CH1-1,2016-01-26T22:50:00Z,-79.18,53.85,20,24.94,,-1.11,,, NC,, NC
CH1-1,2016-01-26T23:00:00Z,-79.18,53.85,20,24.99,,-1.10,,, NC,, NC
CH1-1,2016-01-26T23:10:00Z,-79.18,53.85,20,25.01,,-1.11,,, NC,, NC
CH1-1,2016-01-26T23:20:00Z,-79.18,53.85,20,25.00,,-1.11,,, NC,, NC
CH1-1,2016-01-26T23:30:00Z,-79.18,53.85,20,25.02,,-1.11,,, NC,, NC
CH1-1,2016-01-26T23:40:00Z,-79.18,53.85,20,24.94,,-1.12,,, NC,, NC
CH1-1,2016-01-26T23:50:00Z,-79.18,53.85,20,24.98,,-1.11,,, NC,, NC
CH1-1,2016-01-27T00:00:00Z,-79.18,53.85,20,25.00,,-1.11,,, NC,, NC
CH1-1,2016-01-27T00:10:00Z,-79.18,53.85,20,24.92,,-1.11,,, NC,, NC
CH1-1,2016-01-27T00:20:00Z,-79.18,53.85,20,24.87,,-1.11,,, NC,, NC
CH1-1,2016-01-27T00:30:00Z,-79.18,53.85,20,24.92,,-1.11,,, NC,, NC
CH1-1,2016-01-27T00:40:00Z,-79.18,53.85,20,24.88,,-1.12,,, NC,, NC
CH1-1,2016-01-27T00:50:00Z,-79.18,53.85,20,24.90,,-1.12,,, NC,, NC
CH1-1,2016-01-27T01:00:00Z,-79.18,53.85,20,24.92,,-1.12,,, NC,, NC
CH1-1,2016-01-27T01:10:00Z,-79.18,53.85,20,24.91,,-1.12,,, NC,, NC
CH1-1,2016-01-27T01:20:00Z,-79.18,53.85,20,24.90,,-1.12,,, NC,, NC
CH1-1,2016-01-27T01:30:00Z,-79.18,53.85,20,24.89,,-1.13,,, NC,, NC
CH1-1,2016-01-27T01:40:00Z,-79.18,53.85,20,24.88,,-1.13,,, NC,, NC
CH1-1,2016-01-27T01:50:00Z,-79.18,53.85,20,24.87,,-1.12,,, NC,, NC
CH1-1,2016-01-27T02:00:00Z,-79.18,53.85,20,24.86,,-1.12,,, NC,, NC
CH1-1,2016-01-27T02:10:00Z,-79.18,53.85,20,24.90,,-1.11,,, NC,, NC
CH1-1,2016-01-27T02:20:00Z,-79.18,53.85,20,25.02,,-1.10,,, NC,, NC
CH1-1,2016-01-27T02:30:00Z,-79.18,53.85,20,24.85,,-1.12,,, NC,, NC
CH1-1,2016-01-27T02:40:00Z,-79.18,53.85,20,24.94,,-1.11,,, NC,, NC
CH1-1,2016-01-27T02:50:00Z,-79.18,53.85,20,24.82,,-1.12,,, NC,, NC
CH1-1,2016-01-27T03:00:00Z,-79.18,53.85,20,24.81,,-1.12,,, NC,, NC
CH1-1,2016-01-27T03:10:00Z,-79.18,53.85,20,24.80,,-1.12,,, NC,, NC
CH1-1,2016-01-27T03:20:00Z,-79.18,53.85,20,24.79,,-1.12,,, NC,, NC
CH1-1,2016-01-27T03:30:00Z,-79.18,53.85,20,24.78,,-1.12,,, NC,, NC
CH1-1,2016-01-27T03:40:00Z,-79.18,53.85,20,24.76,,-1.13,,, NC,, NC
CH1-1,2016-01-27T03:50:00Z,-79.18,53.85,20,24.77,,-1.12,,, NC,, NC
CH1-1,2016-01-27T04:00:00Z,-79.18,53.85,20,24.77,,-1.13,,, NC,, NC
CH1-1,2016-01-27T04:10:00Z,-79.18,53.85,20,24.78,,-1.13,,, NC,, NC
CH1-1,2016-01-27T04:20:00Z,-79.18,53.85,20,24.95,,-1.12,,, NC,, NC
CH1-1,2016-01-27T04:30:00Z,-79.18,53.85,20,25.05,,-1.12,,, NC,, NC
CH1-1,2016-01-27T04:40:00Z,-79.18,53.85,20,25.00,,-1.12,,, NC,, NC
CH1-1,2016-01-27T04:50:00Z,-79.18,53.85,20,24.97,,-1.12,,, NC,, NC
CH1-1,2016-01-27T05:00:00Z,-79.18,53.85,20,25.06,,-1.12,,, NC,, NC
CH1-1,2016-01-27T05:10:00Z,-79.18,53.85,20,25.03,,-1.12,,, NC,, NC
CH1-1,2016-01-27T05:20:00Z,-79.18,53.85,20,25.15,,-1.10,,, NC,, NC
CH1-1,2016-01-27T05:30:00Z,-79.18,53.85,20,25.10,,-1.10,,, NC,, NC
CH1-1,2016-01-27T05:40:00Z,-79.18,53.85,20,25.07,,-1.10,,, NC,, NC
CH1-1,2016-01-27T05:50:00Z,-79.18,53.85,20,25.19,,-1.07,,, NC,, NC
CH1-1,2016-01-27T06:00:00Z,-79.18,53.85,20,25.16,,-1.08,,, NC,, NC
CH1-1,2016-01-27T06:10:00Z,-79.18,53.85,20,25.14,,-1.08,,, NC,, NC
CH1-1,2016-01-27T06:20:00Z,-79.18,53.85,20,25.20,,-1.07,,, NC,, NC
CH1-1,2016-01-27T06:30:00Z,-79.18,53.85,20,25.11,,-1.09,,, NC,, NC
CH1-1,2016-01-27T06:40:00Z,-79.18,53.85,20,25.34,,-1.06,,, NC,, NC
CH1-1,2016-01-27T06:50:00Z,-79.18,53.85,20,25.32,,-1.05,,, NC,, NC
CH1-1,2016-01-27T07:00:00Z,-79.18,53.85,20,25.33,,-1.06,,, NC,, NC
CH1-1,2016-01-27T07:10:00Z,-79.18,53.85,20,25.25,,-1.06,,, NC,, NC
CH1-1,2016-01-27T07:20:00Z,-79.18,53.85,20,25.34,,-1.06,,, NC,, NC
CH1-1,2016-01-27T07:30:00Z,-79.18,53.85,20,25.34,,-1.06,,, NC,, NC
CH1-1,2016-01-27T07:40:00Z,-79.18,53.85,20,25.29,,-1.07,,, NC,, NC
CH1-1,2016-01-27T07:50:00Z,-79.18,53.85,20,25.26,,-1.07,,, NC,, NC
CH1-1,2016-01-27T08:00:00Z,-79.18,53.85,20,25.26,,-1.07,,, NC,, NC
CH1-1,2016-01-27T08:10:00Z,-79.18,53.85,20,25.26,,-1.08,,, NC,, NC
CH1-1,2016-01-27T08:20:00Z,-79.18,53.85,20,25.25,,-1.08,,, NC,, NC
CH1-1,2016-01-27T08:30:00Z,-79.18,53.85,20,25.21,,-1.08,,, NC,, NC
CH1-1,2016-01-27T08:40:00Z,-79.18,53.85,20,25.21,,-1.09,,, NC,, NC
CH1-1,2016-01-27T08:50:00Z,-79.18,53.85,20,25.20,,-1.09,,, NC,, NC
CH1-1,2016-01-27T09:00:00Z,-79.18,53.85,20,25.18,,-1.09,,, NC,, NC
CH1-1,2016-01-27T09:10:00Z,-79.18,53.85,20,25.14,,-1.09,,, NC,, NC
CH1-1,2016-01-27T09:20:00Z,-79.18,53.85,20,25.10,,-1.08,,, NC,, NC
CH1-1,2016-01-27T09:30:00Z,-79.18,53.85,20,25.09,,-1.09,,, NC,, NC
CH1-1,2016-01-27T09:40:00Z,-79.18,53.85,20,25.07,,-1.09,,, NC,, NC
CH1-1,2016-01-27T09:50:00Z,-79.18,53.85,20,25.07,,-1.09,,, NC,, NC
CH1-1,2016-01-27T10:00:00Z,-79.18,53.85,20,25.04,,-1.09,,, NC,, NC
CH1-1,2016-01-27T10:10:00Z,-79.18,53.85,20,25.04,,-1.08,,, NC,, NC
CH1-1,2016-01-27T10:20:00Z,-79.18,53.85,20,25.00,,-1.10,,, NC,, NC
CH1-1,2016-01-27T10:30:00Z,-79.18,53.85,20,24.99,,-1.10,,, NC,, NC
CH1-1,2016-01-27T10:40:00Z,-79.18,53.85,20,24.95,,-1.10,,, NC,, NC
CH1-1,2016-01-27T10:50:00Z,-79.18,53.85,20,24.93,,-1.12,,, NC,, NC
CH1-1,2016-01-27T11:00:00Z,-79.18,53.85,20,24.92,,-1.12,,, NC,, NC
CH1-1,2016-01-27T11:10:00Z,-79.18,53.85,20,24.91,,-1.12,,, NC,, NC
CH1-1,2016-01-27T11:20:00Z,-79.18,53.85,20,24.92,,-1.12,,, NC,, NC
CH1-1,2016-01-27T11:30:00Z,-79.18,53.85,20,24.90,,-1.12,,, NC,, NC
CH1-1,2016-01-27T11:40:00Z,-79.18,53.85,20,24.89,,-1.12,,, NC,, NC
CH1-1,2016-01-27T11:50:00Z,-79.18,53.85,20,24.90,,-1.12,,, NC,, NC
CH1-1,2016-01-27T12:00:00Z,-79.18,53.85,20,24.94,,-1.11,,, NC,, NC
CH1-1,2016-01-27T12:10:00Z,-79.18,53.85,20,24.91,,-1.12,,, NC,, NC
CH1-1,2016-01-27T12:20:00Z,-79.18,53.85,20,24.89,,-1.12,,, NC,, NC
CH1-1,2016-01-27T12:30:00Z,-79.18,53.85,20,24.90,,-1.12,,, NC,, NC
CH1-1,2016-01-27T12:40:00Z,-79.18,53.85,20,24.95,,-1.11,,, NC,, NC
CH1-1,2016-01-27T12:50:00Z,-79.18,53.85,20,24.92,,-1.12,,, NC,, NC
CH1-1,2016-01-27T13:00:00Z,-79.18,53.85,20,24.89,,-1.12,,, NC,, NC
CH1-1,2016-01-27T13:10:00Z,-79.18,53.85,20,25.00,,-1.10,,, NC,, NC
CH1-1,2016-01-27T13:20:00Z,-79.18,53.85,20,25.00,,-1.10,,, NC,, NC
CH1-1,2016-01-27T13:30:00Z,-79.18,53.85,20,25.03,,-1.10,,, NC,, NC
CH1-1,2016-01-27T13:40:00Z,-79.18,53.85,20,25.15,,-1.09,,, NC,, NC
CH1-1,2016-01-27T13:50:00Z,-79.18,53.85,20,25.14,,-1.09,,, NC,, NC
CH1-1,2016-01-27T14:00:00Z,-79.18,53.85,20,25.01,,-1.11,,, NC,, NC
CH1-1,2016-01-27T14:10:00Z,-79.18,53.85,20,24.96,,-1.12,,, NC,, NC
CH1-1,2016-01-27T14:20:00Z,-79.18,53.85,20,24.92,,-1.12,,, NC,, NC
CH1-1,2016-01-27T14:30:00Z,-79.18,53.85,20,24.91,,-1.12,,, NC,, NC
CH1-1,2016-01-27T14:40:00Z,-79.18,53.85,20,24.94,,-1.13,,, NC,, NC
CH1-1,2016-01-27T14:50:00Z,-79.18,53.85,20,24.95,,-1.13,,, NC,, NC
CH1-1,2016-01-27T15:00:00Z,-79.18,53.85,20,25.00,,-1.11,,, NC,, NC
CH1-1,2016-01-27T15:10:00Z,-79.18,53.85,20,25.02,,-1.11,,, NC,, NC
CH1-1,2016-01-27T15:20:00Z,-79.18,53.85,20,24.90,,-1.11,,, NC,, NC
CH1-1,2016-01-27T15:30:00Z,-79.18,53.85,20,24.93,,-1.12,,, NC,, NC
CH1-1,2016-01-27T15:40:00Z,-79.18,53.85,20,25.02,,-1.10,,, NC,, NC
CH1-1,2016-01-27T15:50:00Z,-79.18,53.85,20,25.01,,-1.10,,, NC,, NC
CH1-1,2016-01-27T16:00:00Z,-79.18,53.85,20,25.05,,-1.09,,, NC,, NC
CH1-1,2016-01-27T16:10:00Z,-79.18,53.85,20,24.96,,-1.11,,, NC,, NC
CH1-1,2016-01-27T16:20:00Z,-79.18,53.85,20,24.97,,-1.11,,, NC,, NC
CH1-1,2016-01-27T16:30:00Z,-79.18,53.85,20,25.06,,-1.10,,, NC,, NC
CH1-1,2016-01-27T16:40:00Z,-79.18,53.85,20,25.05,,-1.10,,, NC,, NC
CH1-1,2016-01-27T16:50:00Z,-79.18,53.85,20,25.26,,-1.07,,, NC,, NC
CH1-1,2016-01-27T17:00:00Z,-79.18,53.85,20,25.19,,-1.09,,, NC,, NC
CH1-1,2016-01-27T17:10:00Z,-79.18,53.85,20,25.28,,-1.06,,, NC,, NC
CH1-1,2016-01-27T17:20:00Z,-79.18,53.85,20,25.26,,-1.06,,, NC,, NC
CH1-1,2016-01-27T17:30:00Z,-79.18,53.85,20,25.26,,-1.06,,, NC,, NC
CH1-1,2016-01-27T17:40:00Z,-79.18,53.85,20,25.31,,-1.06,,, NC,, NC
CH1-1,2016-01-27T17:50:00Z,-79.18,53.85,20,25.26,,-1.07,,, NC,, NC
CH1-1,2016-01-27T18:00:00Z,-79.18,53.85,20,25.38,,-1.05,,, NC,, NC
CH1-1,2016-01-27T18:10:00Z,-79.18,53.85,20,25.23,,-1.07,,, NC,, NC
CH1-1,2016-01-27T18:20:00Z,-79.18,53.85,20,25.13,,-1.08,,, NC,, NC
CH1-1,2016-01-27T18:30:00Z,-79.18,53.85,20,25.06,,-1.09,,, NC,, NC
CH1-1,2016-01-27T18:40:00Z,-79.18,53.85,20,25.24,,-1.06,,, NC,, NC
CH1-1,2016-01-27T18:50:00Z,-79.18,53.85,20,25.26,,-1.07,,, NC,, NC
CH1-1,2016-01-27T19:00:00Z,-79.18,53.85,20,25.30,,-1.08,,, NC,, NC
CH1-1,2016-01-27T19:10:00Z,-79.18,53.85,20,25.28,,-1.08,,, NC,, NC
CH1-1,2016-01-27T19:20:00Z,-79.18,53.85,20,25.33,,-1.07,,, NC,, NC
CH1-1,2016-01-27T19:30:00Z,-79.18,53.85,20,25.32,,-1.08,,, NC,, NC
CH1-1,2016-01-27T19:40:00Z,-79.18,53.85,20,25.33,,-1.08,,, NC,, NC
CH1-1,2016-01-27T19:50:00Z,-79.18,53.85,20,25.29,,-1.07,,, NC,, NC
CH1-1,2016-01-27T20:00:00Z,-79.18,53.85,20,25.28,,-1.08,,, NC,, NC
CH1-1,2016-01-27T20:10:00Z,-79.18,53.85,20,25.34,,-1.07,,, NC,, NC
CH1-1,2016-01-27T20:20:00Z,-79.18,53.85,20,25.32,,-1.05,,, NC,, NC
CH1-1,2016-01-27T20:30:00Z,-79.18,53.85,20,25.26,,-1.06,,, NC,, NC
CH1-1,2016-01-27T20:40:00Z,-79.18,53.85,20,25.20,,-1.07,,, NC,, NC
CH1-1,2016-01-27T20:50:00Z,-79.18,53.85,20,25.16,,-1.07,,, NC,, NC
CH1-1,2016-01-27T21:00:00Z,-79.18,53.85,20,25.13,,-1.08,,, NC,, NC
CH1-1,2016-01-27T21:10:00Z,-79.18,53.85,20,25.09,,-1.07,,, NC,, NC
CH1-1,2016-01-27T21:20:00Z,-79.18,53.85,20,25.07,,-1.08,,, NC,, NC
CH1-1,2016-01-27T21:30:00Z,-79.18,53.85,20,25.05,,-1.08,,, NC,, NC
CH1-1,2016-01-27T21:40:00Z,-79.18,53.85,20,25.03,,-1.09,,, NC,, NC
CH1-1,2016-01-27T21:50:00Z,-79.18,53.85,20,25.03,,-1.08,,, NC,, NC
CH1-1,2016-01-27T22:00:00Z,-79.18,53.85,20,25.00,,-1.09,,, NC,, NC
CH1-1,2016-01-27T22:10:00Z,-79.18,53.85,20,24.99,,-1.09,,, NC,, NC
CH1-1,2016-01-27T22:20:00Z,-79.18,53.85,20,24.97,,-1.11,,, NC,, NC
CH1-1,2016-01-27T22:30:00Z,-79.18,53.85,20,24.87,,-1.13,,, NC,, NC
CH1-1,2016-01-27T22:40:00Z,-79.18,53.85,20,24.85,,-1.13,,, NC,, NC
CH1-1,2016-01-27T22:50:00Z,-79.18,53.85,20,24.83,,-1.13,,, NC,, NC
CH1-1,2016-01-27T23:00:00Z,-79.18,53.85,20,24.85,,-1.13,,, NC,, NC
CH1-1,2016-01-27T23:10:00Z,-79.18,53.85,20,24.82,,-1.13,,, NC,, NC
CH1-1,2016-01-27T23:20:00Z,-79.18,53.85,20,24.84,,-1.13,,, NC,, NC
CH1-1,2016-01-27T23:30:00Z,-79.18,53.85,20,24.86,,-1.12,,, NC,, NC
CH1-1,2016-01-27T23:40:00Z,-79.18,53.85,20,24.90,,-1.12,,, NC,, NC
CH1-1,2016-01-27T23:50:00Z,-79.18,53.85,20,24.97,,-1.11,,, NC,, NC
CH1-1,2016-01-28T00:00:00Z,-79.18,53.85,20,24.96,,-1.11,,, NC,, NC
CH1-1,2016-01-28T00:10:00Z,-79.18,53.85,20,24.98,,-1.11,,, NC,, NC
CH1-1,2016-01-28T00:20:00Z,-79.18,53.85,20,25.00,,-1.10,,, NC,, NC
CH1-1,2016-01-28T00:30:00Z,-79.18,53.85,20,24.98,,-1.11,,, NC,, NC
CH1-1,2016-01-28T00:40:00Z,-79.18,53.85,20,24.94,,-1.11,,, NC,, NC
CH1-1,2016-01-28T00:50:00Z,-79.18,53.85,20,24.92,,-1.11,,, NC,, NC
CH1-1,2016-01-28T01:00:00Z,-79.18,53.85,20,24.93,,-1.11,,, NC,, NC
CH1-1,2016-01-28T01:10:00Z,-79.18,53.85,20,24.92,,-1.11,,, NC,, NC
CH1-1,2016-01-28T01:20:00Z,-79.18,53.85,20,24.98,,-1.11,,, NC,, NC
CH1-1,2016-01-28T01:30:00Z,-79.18,53.85,20,25.01,,-1.10,,, NC,, NC
CH1-1,2016-01-28T01:40:00Z,-79.18,53.85,20,25.06,,-1.10,,, NC,, NC
CH1-1,2016-01-28T01:50:00Z,-79.18,53.85,20,25.10,,-1.09,,, NC,, NC
CH1-1,2016-01-28T02:00:00Z,-79.18,53.85,20,25.09,,-1.09,,, NC,, NC
CH1-1,2016-01-28T02:10:00Z,-79.18,53.85,20,25.14,,-1.08,,, NC,, NC
CH1-1,2016-01-28T02:20:00Z,-79.18,53.85,20,25.17,,-1.08,,, NC,, NC
CH1-1,2016-01-28T02:30:00Z,-79.18,53.85,20,25.18,,-1.08,,, NC,, NC
CH1-1,2016-01-28T02:40:00Z,-79.18,53.85,20,25.18,,-1.08,,, NC,, NC
CH1-1,2016-01-28T02:50:00Z,-79.18,53.85,20,25.25,,-1.06,,, NC,, NC
CH1-1,2016-01-28T03:00:00Z,-79.18,53.85,20,25.27,,-1.07,,, NC,, NC
CH1-1,2016-01-28T03:10:00Z,-79.18,53.85,20,25.17,,-1.08,,, NC,, NC
CH1-1,2016-01-28T03:20:00Z,-79.18,53.85,20,25.13,,-1.09,,, NC,, NC
CH1-1,2016-01-28T03:30:00Z,-79.18,53.85,20,25.07,,-1.09,,, NC,, NC
CH1-1,2016-01-28T03:40:00Z,-79.18,53.85,20,25.12,,-1.09,,, NC,, NC
CH1-1,2016-01-28T03:50:00Z,-79.18,53.85,20,25.10,,-1.09,,, NC,, NC
CH1-1,2016-01-28T04:00:00Z,-79.18,53.85,20,25.11,,-1.09,,, NC,, NC
CH1-1,2016-01-28T04:10:00Z,-79.18,53.85,20,25.10,,-1.09,,, NC,, NC
CH1-1,2016-01-28T04:20:00Z,-79.18,53.85,20,25.08,,-1.09,,, NC,, NC
CH1-1,2016-01-28T04:30:00Z,-79.18,53.85,20,25.09,,-1.09,,, NC,, NC
CH1-1,2016-01-28T04:40:00Z,-79.18,53.85,20,25.13,,-1.09,,, NC,, NC
CH1-1,2016-01-28T04:50:00Z,-79.18,53.85,20,25.06,,-1.10,,, NC,, NC
CH1-1,2016-01-28T05:00:00Z,-79.18,53.85,20,25.07,,-1.10,,, NC,, NC
CH1-1,2016-01-28T05:10:00Z,-79.18,53.85,20,25.09,,-1.09,,, NC,, NC
CH1-1,2016-01-28T05:20:00Z,-79.18,53.85,20,25.08,,-1.09,,, NC,, NC
CH1-1,2016-01-28T05:30:00Z,-79.18,53.85,20,25.04,,-1.10,,, NC,, NC
CH1-1,2016-01-28T05:40:00Z,-79.18,53.85,20,25.03,,-1.10,,, NC,, NC
CH1-1,2016-01-28T05:50:00Z,-79.18,53.85,20,25.02,,-1.10,,, NC,, NC
CH1-1,2016-01-28T06:00:00Z,-79.18,53.85,20,24.98,,-1.10,,, NC,, NC
CH1-1,2016-01-28T06:10:00Z,-79.18,53.85,20,25.18,,-1.07,,, NC,, NC
CH1-1,2016-01-28T06:20:00Z,-79.18,53.85,20,25.21,,-1.07,,, NC,, NC
CH1-1,2016-01-28T06:30:00Z,-79.18,53.85,20,25.23,,-1.06,,, NC,, NC
CH1-1,2016-01-28T06:40:00Z,-79.18,53.85,20,25.20,,-1.07,,, NC,, NC
CH1-1,2016-01-28T06:50:00Z,-79.18,53.85,20,25.16,,-1.07,,, NC,, NC
CH1-1,2016-01-28T07:00:00Z,-79.18,53.85,20,25.12,,-1.08,,, NC,, NC
CH1-1,2016-01-28T07:10:00Z,-79.18,53.85,20,25.07,,-1.09,,, NC,, NC
CH1-1,2016-01-28T07:20:00Z,-79.18,53.85,20,25.16,,-1.07,,, NC,, NC
CH1-1,2016-01-28T07:30:00Z,-79.18,53.85,20,25.15,,-1.07,,, NC,, NC
CH1-1,2016-01-28T07:40:00Z,-79.18,53.85,20,25.18,,-1.07,,, NC,, NC
CH1-1,2016-01-28T07:50:00Z,-79.18,53.85,20,25.27,,-1.06,,, NC,, NC
CH1-1,2016-01-28T08:00:00Z,-79.18,53.85,20,25.31,,-1.06,,, NC,, NC
CH1-1,2016-01-28T08:10:00Z,-79.18,53.85,20,25.18,,-1.07,,, NC,, NC
CH1-1,2016-01-28T08:20:00Z,-79.18,53.85,20,25.23,,-1.07,,, NC,, NC
CH1-1,2016-01-28T08:30:00Z,-79.18,53.85,20,25.25,,-1.07,,, NC,, NC
CH1-1,2016-01-28T08:40:00Z,-79.18,53.85,20,25.23,,-1.07,,, NC,, NC
CH1-1,2016-01-28T08:50:00Z,-79.18,53.85,20,25.21,,-1.07,,, NC,, NC
CH1-1,2016-01-28T09:00:00Z,-79.18,53.85,20,25.20,,-1.08,,, NC,, NC
CH1-1,2016-01-28T09:10:00Z,-79.18,53.85,20,25.19,,-1.08,,, NC,, NC
CH1-1,2016-01-28T09:20:00Z,-79.18,53.85,20,25.19,,-1.08,,, NC,, NC
CH1-1,2016-01-28T09:30:00Z,-79.18,53.85,20,25.19,,-1.08,,, NC,, NC
CH1-1,2016-01-28T09:40:00Z,-79.18,53.85,20,25.10,,-1.09,,, NC,, NC
CH1-1,2016-01-28T09:50:00Z,-79.18,53.85,20,25.08,,-1.09,,, NC,, NC
CH1-1,2016-01-28T10:00:00Z,-79.18,53.85,20,25.08,,-1.09,,, NC,, NC
CH1-1,2016-01-28T10:10:00Z,-79.18,53.85,20,25.07,,-1.09,,, NC,, NC
CH1-1,2016-01-28T10:20:00Z,-79.18,53.85,20,25.06,,-1.09,,, NC,, NC
CH1-1,2016-01-28T10:30:00Z,-79.18,53.85,20,25.05,,-1.10,,, NC,, NC
CH1-1,2016-01-28T10:40:00Z,-79.18,53.85,20,25.05,,-1.10,,, NC,, NC
CH1-1,2016-01-28T10:50:00Z,-79.18,53.85,20,25.01,,-1.10,,, NC,, NC
CH1-1,2016-01-28T11:00:00Z,-79.18,53.85,20,24.94,,-1.10,,, NC,, NC
CH1-1,2016-01-28T11:10:00Z,-79.18,53.85,20,25.02,,-1.10,,, NC,, NC
CH1-1,2016-01-28T11:20:00Z,-79.18,53.85,20,25.02,,-1.10,,, NC,, NC
CH1-1,2016-01-28T11:30:00Z,-79.18,53.85,20,25.01,,-1.10,,, NC,, NC
CH1-1,2016-01-28T11:40:00Z,-79.18,53.85,20,25.00,,-1.10,,, NC,, NC
CH1-1,2016-01-28T11:50:00Z,-79.18,53.85,20,24.96,,-1.11,,, NC,, NC
CH1-1,2016-01-28T12:00:00Z,-79.18,53.85,20,24.96,,-1.11,,, NC,, NC
CH1-1,2016-01-28T12:10:00Z,-79.18,53.85,20,24.95,,-1.11,,, NC,, NC
CH1-1,2016-01-28T12:20:00Z,-79.18,53.85,20,24.95,,-1.11,,, NC,, NC
CH1-1,2016-01-28T12:30:00Z,-79.18,53.85,20,24.97,,-1.10,,, NC,, NC
CH1-1,2016-01-28T12:40:00Z,-79.18,53.85,20,24.99,,-1.10,,, NC,, NC
CH1-1,2016-01-28T12:50:00Z,-79.18,53.85,20,24.98,,-1.09,,, NC,, NC
CH1-1,2016-01-28T13:00:00Z,-79.18,53.85,20,24.96,,-1.10,,, NC,, NC
CH1-1,2016-01-28T13:10:00Z,-79.18,53.85,20,24.98,,-1.10,,, NC,, NC
CH1-1,2016-01-28T13:20:00Z,-79.18,53.85,20,24.95,,-1.10,,, NC,, NC
CH1-1,2016-01-28T13:30:00Z,-79.18,53.85,20,25.01,,-1.09,,, NC,, NC
CH1-1,2016-01-28T13:40:00Z,-79.18,53.85,20,25.00,,-1.10,,, NC,, NC
CH1-1,2016-01-28T13:50:00Z,-79.18,53.85,20,25.01,,-1.09,,, NC,, NC
CH1-1,2016-01-28T14:00:00Z,-79.18,53.85,20,25.00,,-1.10,,, NC,, NC
CH1-1,2016-01-28T14:10:00Z,-79.18,53.85,20,25.01,,-1.10,,, NC,, NC
CH1-1,2016-01-28T14:20:00Z,-79.18,53.85,20,25.12,,-1.08,,, NC,, NC
CH1-1,2016-01-28T14:30:00Z,-79.18,53.85,20,25.13,,-1.08,,, NC,, NC
CH1-1,2016-01-28T14:40:00Z,-79.18,53.85,20,25.18,,-1.07,,, NC,, NC
CH1-1,2016-01-28T14:50:00Z,-79.18,53.85,20,25.28,,-1.05,,, NC,, NC
CH1-1,2016-01-28T15:00:00Z,-79.18,53.85,20,25.28,,-1.06,,, NC,, NC
CH1-1,2016-01-28T15:10:00Z,-79.18,53.85,20,25.30,,-1.05,,, NC,, NC
CH1-1,2016-01-28T15:20:00Z,-79.18,53.85,20,25.34,,-1.05,,, NC,, NC
CH1-1,2016-01-28T15:30:00Z,-79.18,53.85,20,25.37,,-1.04,,, NC,, NC
CH1-1,2016-01-28T15:40:00Z,-79.18,53.85,20,25.32,,-1.05,,, NC,, NC
CH1-1,2016-01-28T15:50:00Z,-79.18,53.85,20,25.34,,-1.05,,, NC,, NC
CH1-1,2016-01-28T16:00:00Z,-79.18,53.85,20,25.34,,-1.04,,, NC,, NC
CH1-1,2016-01-28T16:10:00Z,-79.18,53.85,20,25.31,,-1.05,,, NC,, NC
CH1-1,2016-01-28T16:20:00Z,-79.18,53.85,20,25.16,,-1.08,,, NC,, NC
CH1-1,2016-01-28T16:30:00Z,-79.18,53.85,20,24.92,,-1.10,,, NC,, NC
CH1-1,2016-01-28T16:40:00Z,-79.18,53.85,20,24.99,,-1.10,,, NC,, NC
CH1-1,2016-01-28T16:50:00Z,-79.18,53.85,20,25.08,,-1.08,,, NC,, NC
CH1-1,2016-01-28T17:00:00Z,-79.18,53.85,20,25.07,,-1.09,,, NC,, NC
CH1-1,2016-01-28T17:10:00Z,-79.18,53.85,20,25.11,,-1.08,,, NC,, NC
CH1-1,2016-01-28T17:20:00Z,-79.18,53.85,20,25.08,,-1.08,,, NC,, NC
CH1-1,2016-01-28T17:30:00Z,-79.18,53.85,20,24.99,,-1.09,,, NC,, NC
CH1-1,2016-01-28T17:40:00Z,-79.18,53.85,20,24.98,,-1.09,,, NC,, NC
CH1-1,2016-01-28T17:50:00Z,-79.18,53.85,20,24.99,,-1.10,,, NC,, NC
CH1-1,2016-01-28T18:00:00Z,-79.18,53.85,20,25.00,,-1.09,,, NC,, NC
CH1-1,2016-01-28T18:10:00Z,-79.18,53.85,20,25.08,,-1.08,,, NC,, NC
CH1-1,2016-01-28T18:20:00Z,-79.18,53.85,20,25.13,,-1.08,,, NC,, NC
CH1-1,2016-01-28T18:30:00Z,-79.18,53.85,20,25.23,,-1.07,,, NC,, NC
CH1-1,2016-01-28T18:40:00Z,-79.18,53.85,20,25.37,,-1.04,,, NC,, NC
CH1-1,2016-01-28T18:50:00Z,-79.18,53.85,20,25.40,,-1.04,,, NC,, NC
CH1-1,2016-01-28T19:00:00Z,-79.18,53.85,20,25.46,,-1.04,,, NC,, NC
CH1-1,2016-01-28T19:10:00Z,-79.18,53.85,20,25.43,,-1.04,,, NC,, NC
CH1-1,2016-01-28T19:20:00Z,-79.18,53.85,20,25.40,,-1.04,,, NC,, NC
CH1-1,2016-01-28T19:30:00Z,-79.18,53.85,20,25.39,,-1.05,,, NC,, NC
CH1-1,2016-01-28T19:40:00Z,-79.18,53.85,20,25.33,,-1.05,,, NC,, NC
CH1-1,2016-01-28T19:50:00Z,-79.18,53.85,20,25.28,,-1.06,,, NC,, NC
CH1-1,2016-01-28T20:00:00Z,-79.18,53.85,20,25.37,,-1.05,,, NC,, NC
CH1-1,2016-01-28T20:10:00Z,-79.18,53.85,20,25.39,,-1.04,,, NC,, NC
CH1-1,2016-01-28T20:20:00Z,-79.18,53.85,20,25.39,,-1.05,,, NC,, NC
CH1-1,2016-01-28T20:30:00Z,-79.18,53.85,20,25.43,,-1.04,,, NC,, NC
CH1-1,2016-01-28T20:40:00Z,-79.18,53.85,20,25.43,,-1.04,,, NC,, NC
CH1-1,2016-01-28T20:50:00Z,-79.18,53.85,20,25.41,,-1.05,,, NC,, NC
CH1-1,2016-01-28T21:00:00Z,-79.18,53.85,20,25.39,,-1.06,,, NC,, NC
CH1-1,2016-01-28T21:10:00Z,-79.18,53.85,20,25.41,,-1.06,,, NC,, NC
CH1-1,2016-01-28T21:20:00Z,-79.18,53.85,20,25.42,,-1.05,,, NC,, NC
CH1-1,2016-01-28T21:30:00Z,-79.18,53.85,20,25.36,,-1.06,,, NC,, NC
CH1-1,2016-01-28T21:40:00Z,-79.18,53.85,20,25.30,,-1.07,,, NC,, NC
CH1-1,2016-01-28T21:50:00Z,-79.18,53.85,20,25.33,,-1.07,,, NC,, NC
CH1-1,2016-01-28T22:00:00Z,-79.18,53.85,20,25.26,,-1.08,,, NC,, NC
CH1-1,2016-01-28T22:10:00Z,-79.18,53.85,20,25.26,,-1.07,,, NC,, NC
CH1-1,2016-01-28T22:20:00Z,-79.18,53.85,20,25.25,,-1.07,,, NC,, NC
CH1-1,2016-01-28T22:30:00Z,-79.18,53.85,20,25.25,,-1.07,,, NC,, NC
CH1-1,2016-01-28T22:40:00Z,-79.18,53.85,20,25.22,,-1.07,,, NC,, NC
CH1-1,2016-01-28T22:50:00Z,-79.18,53.85,20,25.23,,-1.07,,, NC,, NC
CH1-1,2016-01-28T23:00:00Z,-79.18,53.85,20,25.10,,-1.09,,, NC,, NC
CH1-1,2016-01-28T23:10:00Z,-79.18,53.85,20,25.07,,-1.09,,, NC,, NC
CH1-1,2016-01-28T23:20:00Z,-79.18,53.85,20,25.08,,-1.09,,, NC,, NC
CH1-1,2016-01-28T23:30:00Z,-79.18,53.85,20,25.09,,-1.09,,, NC,, NC
CH1-1,2016-01-28T23:40:00Z,-79.18,53.85,20,25.10,,-1.09,,, NC,, NC
CH1-1,2016-01-28T23:50:00Z,-79.18,53.85,20,25.12,,-1.09,,, NC,, NC
CH1-1,2016-01-29T00:00:00Z,-79.18,53.85,20,25.09,,-1.09,,, NC,, NC
CH1-1,2016-01-29T00:10:00Z,-79.18,53.85,20,25.10,,-1.09,,, NC,, NC
CH1-1,2016-01-29T00:20:00Z,-79.18,53.85,20,25.08,,-1.09,,, NC,, NC
CH1-1,2016-01-29T00:30:00Z,-79.18,53.85,20,25.06,,-1.10,,, NC,, NC
CH1-1,2016-01-29T00:40:00Z,-79.18,53.85,20,25.08,,-1.09,,, NC,, NC
CH1-1,2016-01-29T00:50:00Z,-79.18,53.85,20,25.09,,-1.09,,, NC,, NC
CH1-1,2016-01-29T01:00:00Z,-79.18,53.85,20,25.07,,-1.09,,, NC,, NC
CH1-1,2016-01-29T01:10:00Z,-79.18,53.85,20,25.09,,-1.09,,, NC,, NC
CH1-1,2016-01-29T01:20:00Z,-79.18,53.85,20,25.18,,-1.08,,, NC,, NC
CH1-1,2016-01-29T01:30:00Z,-79.18,53.85,20,25.16,,-1.08,,, NC,, NC
CH1-1,2016-01-29T01:40:00Z,-79.18,53.85,20,25.14,,-1.09,,, NC,, NC
CH1-1,2016-01-29T01:50:00Z,-79.18,53.85,20,25.12,,-1.09,,, NC,, NC
CH1-1,2016-01-29T02:00:00Z,-79.18,53.85,20,25.11,,-1.09,,, NC,, NC
CH1-1,2016-01-29T02:10:00Z,-79.18,53.85,20,25.20,,-1.07,,, NC,, NC
CH1-1,2016-01-29T02:20:00Z,-79.18,53.85,20,25.26,,-1.06,,, NC,, NC
CH1-1,2016-01-29T02:30:00Z,-79.18,53.85,20,25.32,,-1.05,,, NC,, NC
CH1-1,2016-01-29T02:40:00Z,-79.18,53.85,20,25.31,,-1.05,,, NC,, NC
CH1-1,2016-01-29T02:50:00Z,-79.18,53.85,20,25.33,,-1.05,,, NC,, NC
CH1-1,2016-01-29T03:00:00Z,-79.18,53.85,20,25.31,,-1.05,,, NC,, NC
CH1-1,2016-01-29T03:10:00Z,-79.18,53.85,20,25.30,,-1.05,,, NC,, NC
CH1-1,2016-01-29T03:20:00Z,-79.18,53.85,20,25.31,,-1.05,,, NC,, NC
CH1-1,2016-01-29T03:30:00Z,-79.18,53.85,20,25.29,,-1.06,,, NC,, NC
CH1-1,2016-01-29T03:40:00Z,-79.18,53.85,20,25.31,,-1.06,,, NC,, NC
CH1-1,2016-01-29T03:50:00Z,-79.18,53.85,20,25.34,,-1.06,,, NC,, NC
CH1-1,2016-01-29T04:00:00Z,-79.18,53.85,20,25.36,,-1.05,,, NC,, NC
CH1-1,2016-01-29T04:10:00Z,-79.18,53.85,20,25.41,,-1.06,,, NC,, NC
CH1-1,2016-01-29T04:20:00Z,-79.18,53.85,20,25.42,,-1.07,,, NC,, NC
CH1-1,2016-01-29T04:30:00Z,-79.18,53.85,20,25.35,,-1.07,,, NC,, NC
CH1-1,2016-01-29T04:40:00Z,-79.18,53.85,20,25.41,,-1.07,,, NC,, NC
CH1-1,2016-01-29T04:50:00Z,-79.18,53.85,20,25.44,,-1.07,,, NC,, NC
CH1-1,2016-01-29T05:00:00Z,-79.18,53.85,20,25.46,,-1.06,,, NC,, NC
CH1-1,2016-01-29T05:10:00Z,-79.18,53.85,20,25.45,,-1.07,,, NC,, NC
CH1-1,2016-01-29T05:20:00Z,-79.18,53.85,20,25.43,,-1.07,,, NC,, NC
CH1-1,2016-01-29T05:30:00Z,-79.18,53.85,20,25.45,,-1.07,,, NC,, NC
CH1-1,2016-01-29T05:40:00Z,-79.18,53.85,20,25.48,,-1.06,,, NC,, NC
CH1-1,2016-01-29T05:50:00Z,-79.18,53.85,20,25.47,,-1.06,,, NC,, NC
CH1-1,2016-01-29T06:00:00Z,-79.18,53.85,20,25.43,,-1.06,,, NC,, NC
CH1-1,2016-01-29T06:10:00Z,-79.18,53.85,20,25.42,,-1.07,,, NC,, NC
CH1-1,2016-01-29T06:20:00Z,-79.18,53.85,20,25.45,,-1.04,,, NC,, NC
CH1-1,2016-01-29T06:30:00Z,-79.18,53.85,20,25.48,,-1.04,,, NC,, NC
CH1-1,2016-01-29T06:40:00Z,-79.18,53.85,20,25.48,,-1.04,,, NC,, NC
CH1-1,2016-01-29T06:50:00Z,-79.18,53.85,20,25.56,,-1.03,,, NC,, NC
CH1-1,2016-01-29T07:00:00Z,-79.18,53.85,20,25.61,,-1.02,,, NC,, NC
CH1-1,2016-01-29T07:10:00Z,-79.18,53.85,20,25.64,,-1.01,,, NC,, NC
CH1-1,2016-01-29T07:20:00Z,-79.18,53.85,20,25.66,,-1.00,,, NC,, NC
CH1-1,2016-01-29T07:30:00Z,-79.18,53.85,20,25.67,,-1.00,,, NC,, NC
CH1-1,2016-01-29T07:40:00Z,-79.18,53.85,20,25.56,,-1.03,,, NC,, NC